Flag for Israel Weather past 2 weeks in Holon, Israel

Now
64 °F

Clear.


Feels Like: 64 °F
Forecast: 62 / 79 °F
Wind: 10 mph from Northeast

Location: Dov Airport

Current Time: Apr 25, 2015 at 9:26:25 PM

Latest Report: Apr 25, 2015 at 8:50 PM


Visibility: 10 mi

Pressure: 30.04 "Hg

Humidity: 64%

Dew point: 52 °F

Location of HolonLocation

Historic Weather in Holon — Graph

°F

Holon temperature yesterday

Maximum temperature yesterday: 66 °F (at 11:50 AM)
Minimum temperature yesterday: 61 °F (at 5:50 AM)
Average temperature yesterday: 64 °F

Past Weeks' High & Low Weather Summary

 TemperatureHumidityPressure
High82 °F (Apr 20, 3:50 PM)94% (Apr 11, 9:50 AM)30.24 "Hg (Apr 11, 9:50 AM)
Low50 °F (Apr 12, 9:50 AM)15% (Apr 20, 6:50 PM)29.80 "Hg (Apr 20, 8:50 PM)
Average64 °F66%30.02 "Hg
* Reported Apr 10 7:50 PM — Apr 25 7:50 PM, Holon, Weather by CustomWeather, © 2015

Note: Actual official high and low records may vary slightly from our data, if they occured in-between our weather recording intervals... More about our weather records

Advertising

Holon weather history for previous 24 hours

 ConditionsComfort  
Time TempWeatherWind HumidityBarometerVisibility
7:50 PM
Sat, Apr 25
64 °FSunny.14 mph68%30.01 "Hg10 mi
6:50 PM66 °FSunny.20 mph64%30.04 "Hg10 mi
5:50 PM66 °FSunny.18 mph60%30.04 "Hg10 mi
4:50 PM68 °FSunny.18 mph60%30.04 "Hg10 mi
3:50 PM68 °FSunny.20 mph56%30.07 "Hg10 mi
2:50 PM68 °FSunny.18 mph53%30.07 "Hg10 mi
1:50 PM68 °FSunny.17 mph53%30.09 "Hg10 mi
12:50 PM68 °FSunny.14 mph49%30.12 "Hg10 mi
11:50 AM68 °FSunny.14 mph46%30.15 "Hg10 mi
10:50 AM68 °FSunny.6 mph40%30.15 "Hg10 mi
9:50 AM64 °FSunny.7 mph43%30.15 "Hg10 mi
8:50 AM63 °FSunny.7 mph52%30.18 "Hg10 mi
7:50 AM59 °FSunny.5 mph59%30.18 "Hg10 mi
6:50 AM54 °FClear.7 mph67%30.18 "Hg10 mi
6:00 AM54 °FClear.7 mph67%30.18 "Hg10 mi
9:50 PM
Fri, Apr 24
63 °FClear.6 mph49%30.21 "Hg10 mi
Weather by CustomWeather, © 2015

See weather overviewHow to use our weather pages